Location: Ferintosh
(52.7647°N, 112.9692°W)
Time: 14:41:27
(UTC+00:00)

Transit 2A - Pass Details

Date: 22 May 2024
Orbit: 592 x 959 km, 66.7° (Epoch: 23 June)

Event Time Altitude Azimuth Distance (km) Brightness Sun altitude
Rises 06:27:34 0° 206° (SSW) 2,933 - -15.5°
Reaches altitude 10° 06:29:46 10° 203° (SSW) 2,069 - -15.6°
Exits shadow 06:31:24 22° 198° (SSW) 1,460 7.0 -15.7°
Maximum altitude 06:34:23 62° 123° (ESE) 793 5.8 -15.8°
Drops below altitude 10° 06:39:32 10° 44° (NE) 2,306 8.9 -16.0°
Sets 06:42:05 0° 41° (NE) 3,300 9.8 -16.0°
